Theta_e
295 295 295 296 296 296 296 297 297 297 297 297 296 296 297 297 298 297 290 293 288 285 288 290 290 285 286 284 281 279 286 285 285 284 284 283 283 283 283 283 282 284 285 285 286 283 281 285 283 287 286 281 283 283
295 295 295 295 295 295 296 296 296 297 297 296 296 296 296 296 297 297 287 293 294 286 286 289 291 290 292 291 288 285 284 281 287 286 285 284 284 283 284 281 284 282 287 284 285 285 286 285 286 285 284 285 286 286
294 294 294 294 294 294 295 295 296 296 296 296 296 296 296 296 296 296 291 291 290 284 285 285 286 289 290 291 293 286 286 289 287 289 287 286 283 282 281 282 279 283 284 285 285 285 283 282 283 283 282 283 283 285
293 293 293 293 293 294 294 294 295 296 296 295 295 295 295 295 295 295 290 292 289 285 281 282 286 286 288 290 290 292 290 288 288 287 285 284 283 285 280 281 283 283 285 283 282 283 282 285 283 284 283 281 281 282
292 292 292 292 293 293 293 294 294 294 295 295 294 294 294 294 295 292 290 293 293 285 280 280 282 284 285 287 287 289 290 286 285 283 283 282 281 280 276 281 280 281 282 283 282 285 287 286 286 285 285 283 282 282
291 291 291 291 292 292 293 293 293 293 293 294 294 294 294 294 294 288 280 289 293 292 282 275 280 279 283 286 288 288 288 286 285 284 283 283 282 282 279 279 284 283 283 286 285 285 285 283 285 285 286 283 282 281
290 290 290 291 291 292 292 292 292 292 293 293 293 293 293 293 288 284 278 285 294 293 283 277 270 281 282 284 283 283 285 284 284 283 281 280 280 282 280 276 279 280 281 279 281 283 283 281 281 284 283 282 280 278
290 290 290 290 290 291 291 291 292 292 292 292 293 293 293 293 292 286 289 293 295 287 284 277 273 277 282 279 279 282 281 282 281 281 277 278 279 280 276 279 275 274 278 278 277 278 279 279 279 278 278 277 278 277
290 289 289 289 290 290 291 291 291 292 292 292 292 292 290 287 282 281 293 293 292 285 279 274 272 271 281 280 279 279 280 276 277 271 276 276 274 275 273 273 270 267 268 269 271 275 276 275 275 275 274 273 274 274
289 288 289 289 289 290 290 291 291 291 291 292 288 283 279 281 290 291 283 279 282 283 281 276 270 267 279 277 275 273 273 272 268 270 275 270 264 268 265 264 264 264 264 265 269 271 270 270 272 272 271 271 272 272
288 288 289 289 289 289 290 290 291 291 290 285 278 278 281 289 282 278 274 273 270 275 280 274 274 275 280 271 270 276 269 265 266 267 268 261 262 266 263 261 261 261 262 262 263 266 267 266 268 269 267 266 266 266
287 288 288 288 288 289 290 290 291 285 280 283 281 284 283 273 270 275 269 267 270 269 276 271 273 279 279 278 275 272 269 266 265 261 263 262 264 258 257 257 258 257 256 257 259 260 261 261 261 261 260 260 259 260
287 287 287 288 289 289 290 290 290 290 289 285 282 277 275 268 268 269 265 266 267 271 271 271 274 276 279 279 276 274 271 268 269 265 263 259 258 256 254 254 254 254 255 255 256 257 257 256 256 255 256 256 256 256
287 288 288 288 288 287 288 288 289 289 285 277 272 266 269 264 265 264 266 263 268 269 268 279 274 276 278 276 276 270 272 272 264 264 262 253 253 252 252 251 249 251 252 254 253 254 254 254 253 253 252 252 253 253
288 288 287 286 285 285 285 286 287 285 279 274 274 264 262 261 265 258 262 268 269 274 279 276 277 278 275 274 274 271 267 266 263 261 251 253 252 252 251 250 249 250 251 251 250 251 252 252 252 252 251 251 252 252
288 284 281 283 283 284 285 282 281 275 268 267 261 262 254 258 259 262 260 264 264 263 280 279 275 273 271 272 269 263 266 261 254 247 251 252 251 251 250 250 250 251 250 250 249 249 251 251 250 248 250 251 251 251
281 271 281 283 285 283 282 274 272 267 265 262 257 250 249 254 255 256 256 257 260 259 274 276 271 269 269 259 253 252 248 249 249 250 252 252 251 250 250 251 251 251 251 250 249 250 248 247 249 252 251 248 249 249
270 275 282 284 279 276 270 270 266 262 258 258 253 251 251 253 252 253 254 256 256 258 262 258 259 253 253 253 248 249 251 252 253 252 252 252 251 252 252 252 252 251 250 251 249 248 249 251 253 251 248 247 250 250
274 277 281 281 276 269 266 265 266 259 257 256 258 258 255 255 255 254 253 255 256 254 254 251 247 246 246 248 250 250 251 253 252 252 253 253 254 254 254 254 254 253 252 250 250 250 251 251 251 251 251 252 251 251
280 278 277 277 275 267 262 261 266 261 257 258 256 256 256 254 254 254 252 252 252 249 245 244 244 246 248 249 250 251 252 254 254 252 252 253 254 254 253 253 253 253 252 251 251 251 250 251 251 250 249 249 248 247
270 270 271 268 264 263 260 259 260 261 260 257 259 257 254 254 251 250 249 251 248 246 245 247 247 248 250 250 251 251 251 254 252 253 252 251 252 252 252 252 252 251 250 249 249 249 249 248 247 246 246 245 245 246
264 269 260 263 262 258 259 260 259 261 257 256 256 254 251 250 249 249 251 247 246 247 248 248 249 249 249 249 250 251 252 253 253 253 253 253 250 250 249 249 250 248 247 246 244 243 243 245 245 244 245 244 246 246
262 262 256 254 256 253 253 259 256 257 256 254 254 251 250 249 250 253 246 247 247 250 250 250 250 251 250 251 251 251 252 252 251 251 250 250 250 250 249 248 247 245 245 245 242 242 243 247 246 246 245 245 244 245
258 250 247 246 247 246 251 251 255 254 255 253 251 248 248 249 252 247 243 245 247 249 249 250 251 250 250 250 248 249 250 251 250 250 250 250 248 248 248 248 247 245 244 245 245 245 245 244 246 245 244 241 241 241
246 241 243 239 244 244 244 246 247 250 248 250 249 248 248 251 246 244 244 245 247 247 248 249 249 249 248 248 248 248 249 249 248 247 247 248 247 246 245 246 246 247 247 246 246 245 244 243 243 243 244 241 242 241
238 240 239 238 240 241 243 242 243 243 246 246 247 249 249 247 244 242 244 246 246 247 247 247 247 247 247 246 246 246 245 245 244 244 242 240 241 241 240 241 240 242 242 239 239 239 239 241 239 241 242 242 243 240
238 239 244 245 242 243 242 244 244 243 241 241 242 246 246 242 241 244 248 249 248 247 248 247 247 247 246 245 245 240 239 238 240 242 240 240 241 239 241 240 240 241 240 238 237 237 238 237 239 240 241 240 238 240
244 244 241 242 239 237 239 241 241 240 241 243 244 241 241 242 242 247 248 249 248 247 246 245 244 244 241 239 237 237 238 240 244 244 242 240 239 240 238 238 238 249 241 240 241 243 239 239 241 243 242 242 244 243
245 246 245 241 239 241 241 240 241 243 245 243 243 241 242 244 245 247 247 247 247 246 245 244 244 241 238 236 236 235 235 239 242 241 240 241 239 241 237 238 238 239 238 236 245 250 249 249 248 247 243 243 244 243
245 246 243 241 239 240 242 242 241 244 245 244 246 246 244 244 245 247 245 244 243 241 239 238 236 238 237 237 237 239 238 237 239 240 237 237 239 238 236 238 239 239 238 235 241 242 246 243 243 239 241 241 241 242
246 245 243 242 241 241 242 243 240 239 241 241 241 241 240 239 243 243 243 239 239 237 239 239 237 233 235 238 236 236 238 235 233 235 235 235 236 237 237 239 240 238 236 237 239 240 242 242 241 241 241 241 241 241
242 238 240 240 241 241 240 238 234 235 236 238 237 236 239 240 240 242 242 239 237 239 240 239 237 239 238 236 234 235 241 238 238 240 239 240 239 239 241 242 241 239 239 242 242 243 242 241 242 242 242 242 241 241
233 234 232 234 237 237 235 235 236 235 235 234 235 231 231 236 240 242 241 237 240 240 238 238 239 237 237 238 238 238 240 238 238 246 249 249 249 249 248 247 244 243 244 245 244 244 242 242 242 242 242 242 242 242
Wind_Speed
25 23 22 22 23 23 21 24 25 24 23 21 20 19 19 19 19 14 4 6 3 5 9 8 10 7 1 5 8 4 4 1 2 6 5 5 6 8 4 5 7 6 8 12 11 12 19 9 3 12 4 1 4 2
25 22 21 21 21 21 21 22 23 23 22 21 18 18 19 17 18 15 4 4 4 6 4 2 6 4 11 11 7 5 3 5 6 5 5 3 3 3 8 7 4 6 8 3 5 3 3 5 2 2 2 4 3 2
24 22 20 20 19 20 20 21 21 22 22 22 20 20 19 19 18 15 3 3 2 4 5 4 7 6 1 5 5 5 2 4 4 1 3 4 6 4 7 8 2 5 5 5 3 4 4 4 1 2 2 1 2 1
23 20 19 19 19 20 19 19 19 20 21 20 20 18 17 17 17 15 5 3 3 3 4 3 3 3 3 6 3 3 5 4 3 2 2 2 4 2 3 2 5 3 10 8 4 4 1 8 8 5 3 2 2 0
21 19 18 18 19 19 18 17 16 17 18 20 18 16 16 16 16 9 3 6 6 3 3 1 4 4 3 6 8 7 7 5 3 3 3 4 2 2 1 1 4 5 6 6 5 3 4 3 9 9 8 6 6 6
19 18 17 18 19 18 18 18 16 17 18 18 18 17 18 16 15 3 3 6 10 6 3 2 1 2 2 4 9 9 6 3 3 3 3 2 0 2 3 4 4 3 2 4 2 3 2 1 4 5 8 8 5 3
18 15 15 15 16 17 17 16 16 18 19 19 18 18 17 17 6 6 6 4 12 9 3 4 3 3 4 1 1 2 3 2 2 2 3 2 2 3 2 3 3 3 5 2 4 1 1 2 2 6 7 4 6 5
17 16 16 15 14 15 16 15 15 17 18 16 17 18 18 19 16 11 9 15 4 4 5 4 1 1 4 2 3 1 3 2 1 2 1 3 2 1 4 1 4 8 3 8 10 7 3 6 4 5 5 4 5 5
16 15 15 13 14 16 15 15 13 11 14 13 14 13 3 3 3 5 10 13 4 2 5 4 10 6 6 2 2 2 2 2 2 2 3 4 1 5 1 3 4 10 6 9 10 6 8 10 7 5 5 5 5 3
13 12 13 13 11 12 14 15 14 15 12 11 4 3 3 4 4 8 0 1 3 4 6 2 2 3 7 4 2 4 2 3 2 4 3 2 3 5 6 7 6 8 10 11 2 4 7 7 7 5 6 5 4 4
13 14 14 13 12 12 13 15 16 13 8 2 3 3 3 3 3 3 5 5 4 4 5 4 5 5 2 4 4 2 4 2 4 6 6 2 4 5 4 6 7 8 8 7 5 5 5 4 4 4 6 7 6 6
11 12 12 13 12 12 14 14 16 6 4 4 5 2 1 3 1 6 6 3 6 9 3 6 5 4 4 2 3 3 4 2 6 3 5 3 2 5 5 6 7 8 8 7 6 6 7 8 7 5 5 6 6 5
8 9 9 10 12 14 14 14 15 13 9 2 3 4 3 3 3 6 7 6 4 2 6 6 6 4 4 3 3 4 6 5 7 3 5 2 5 5 5 4 3 6 5 4 5 5 6 6 8 7 5 5 5 6
8 10 12 12 10 9 8 2 4 6 4 5 5 4 6 5 6 5 5 5 5 2 4 15 4 4 3 5 3 4 3 6 3 4 7 1 2 2 3 3 3 5 5 5 5 5 6 7 8 7 7 5 5 7
12 10 7 9 6 1 1 3 2 3 2 2 3 8 6 3 1 3 3 4 4 4 8 4 4 2 2 4 3 5 3 5 6 6 2 2 3 3 4 3 4 4 4 4 4 3 6 6 7 8 7 6 6 7
13 12 6 6 4 2 4 4 3 3 4 3 7 3 3 4 3 4 6 5 7 9 5 1 4 4 3 3 4 2 7 7 3 2 1 3 3 4 3 3 4 3 4 4 4 4 7 7 7 5 6 9 8 7
12 3 11 7 10 15 11 5 3 6 4 3 2 3 2 4 3 3 5 6 9 7 1 3 4 3 5 6 4 4 1 1 2 3 3 4 4 3 3 5 5 5 6 6 5 6 4 3 4 9 12 5 5 6
4 4 9 5 7 6 4 5 5 5 6 3 4 3 2 4 2 4 5 7 6 6 5 4 5 9 5 5 2 1 4 4 5 5 4 3 3 4 5 7 6 6 6 6 5 4 5 6 8 5 3 3 5 6
7 8 15 10 7 5 4 4 4 5 3 3 3 2 2 5 6 7 7 7 3 6 5 6 10 5 3 3 3 4 4 2 5 5 6 6 5 6 7 8 9 9 9 7 7 5 6 8 5 5 4 4 5 4
12 21 14 16 7 5 5 4 3 5 3 2 3 3 4 5 4 5 9 9 6 6 10 9 5 2 3 2 3 3 2 2 5 6 7 6 5 7 8 7 6 7 7 6 6 7 5 6 6 5 4 4 4 4
10 8 13 6 5 7 5 3 4 3 3 4 1 3 4 4 5 7 6 8 8 8 5 3 3 3 3 2 2 1 3 3 3 3 4 5 4 6 7 6 7 7 6 4 5 5 7 4 3 3 4 3 3 2
3 12 5 9 6 5 5 6 2 2 4 3 4 3 4 4 5 6 4 10 7 4 2 2 2 3 4 3 3 3 3 7 7 8 8 6 5 5 6 5 6 6 6 4 3 3 3 3 4 4 4 3 4 4
8 8 7 10 7 9 3 5 5 5 3 3 3 4 5 4 4 4 7 5 3 4 4 2 3 4 5 5 6 8 7 7 7 7 7 7 7 6 6 6 6 4 4 4 2 3 3 5 4 4 4 4 4 4
13 11 10 8 10 5 4 6 5 4 4 4 5 5 5 4 3 6 6 3 3 5 5 6 3 3 4 8 6 6 6 4 7 7 5 6 7 6 5 5 4 3 1 1 2 3 3 3 5 4 4 4 4 3
16 14 9 11 6 8 9 6 6 5 5 5 4 5 4 3 5 5 3 2 3 4 5 5 5 5 4 4 4 5 8 5 5 7 5 3 4 3 3 3 4 4 3 2 4 4 3 3 4 4 4 3 5 6
14 6 7 7 6 6 5 5 7 7 5 5 6 3 3 4 6 5 2 1 2 3 4 4 2 3 5 5 3 4 4 5 3 5 3 2 3 4 3 2 1 3 2 2 1 3 3 3 3 6 5 6 6 5
10 5 4 3 1 3 4 3 3 5 6 5 3 3 3 6 4 2 1 2 2 2 3 4 3 4 3 1 2 2 3 2 2 4 2 3 4 2 4 3 1 4 2 2 1 2 2 3 4 4 5 4 4 5
3 4 6 6 5 3 4 5 6 6 4 4 1 5 4 3 3 2 2 3 3 3 4 4 4 3 1 1 2 3 3 3 4 4 3 2 1 1 2 0 2 5 2 2 3 3 3 4 5 6 5 6 9 6
5 5 3 6 4 6 6 4 5 3 3 1 2 3 3 2 2 2 2 3 2 3 2 2 3 2 2 2 2 1 2 2 4 2 1 3 3 3 1 2 3 3 2 3 8 8 7 7 4 5 5 7 9 8
8 5 4 5 6 7 5 2 3 4 2 1 2 5 4 3 3 3 2 2 2 2 2 1 1 2 1 2 3 4 2 1 1 4 4 4 5 4 3 4 4 4 2 2 4 6 9 5 6 4 6 7 6 7
4 4 5 5 5 2 3 5 3 3 5 6 5 5 3 1 3 1 1 2 2 2 1 1 2 1 1 1 1 1 3 3 4 5 4 3 4 5 5 5 5 4 3 3 5 5 6 6 6 8 10 11 12 11
5 5 3 4 2 4 5 5 3 4 5 5 4 3 3 3 2 3 2 3 3 1 3 2 2 4 5 4 3 3 5 4 4 5 7 4 5 6 6 6 5 4 5 6 6 6 7 8 9 10 12 15 14 14
3 4 3 3 5 6 5 4 6 4 5 4 3 1 2 3 2 5 2 3 4 5 4 5 5 4 6 6 5 4 6 5 7 10 10 12 13 12 8 5 4 5 7 8 7 7 10 12 12 13 14 14 15 15
Wind_Direction
251 249 249 249 249 255 252 249 241 237 232 233 234 242 246 247 250 234 233 206 169 280 211 216 205 185 188 184 197 190 120 154 169 195 208 192 208 202 186 177 171 215 208 217 228 236 237 155 100 192 203 150 171 215
242 239 240 241 249 249 255 249 243 235 229 228 233 238 245 246 245 239 216 210 191 244 288 239 213 239 220 196 190 200 185 165 183 189 187 192 205 170 182 234 147 221 195 207 229 255 316 209 27 54 162 153 195 186
241 239 241 246 248 250 249 246 241 234 225 224 225 233 242 245 245 238 214 178 150 239 237 191 204 214 158 212 167 152 217 184 199 259 167 199 226 146 174 226 145 244 170 181 121 222 251 281 273 243 250 200 116 91
240 241 244 247 242 244 243 241 238 229 220 223 228 232 239 249 252 245 214 194 169 267 278 248 1 189 235 161 173 136 126 79 105 167 230 202 234 197 215 287 222 183 147 172 253 199 282 256 218 199 172 43 69 299
234 230 238 241 239 237 233 231 227 225 217 223 230 235 244 249 250 247 226 203 207 198 300 307 320 233 269 172 156 144 142 144 163 171 199 211 154 134 263 47 246 196 175 183 212 186 170 247 195 168 157 166 184 87
229 229 242 237 230 229 227 226 225 227 226 228 227 235 240 240 242 148 255 216 197 188 243 244 239 297 131 221 167 162 145 128 174 195 184 207 323 174 193 202 245 208 342 353 313 151 77 52 65 144 160 166 134 126
224 226 229 227 228 228 226 231 235 237 232 227 228 232 239 241 215 203 196 221 190 162 220 235 255 197 134 107 86 105 115 150 174 176 197 176 202 189 207 215 359 4 137 74 4 71 111 36 95 153 141 111 91 84
216 214 221 225 227 226 227 223 236 237 228 224 227 236 244 244 243 234 237 268 249 198 185 219 184 135 135 191 138 150 126 131 200 146 89 178 147 217 232 210 38 356 43 56 16 359 29 98 65 62 57 101 101 100
214 219 218 228 234 226 222 221 226 219 212 218 229 241 254 214 190 222 198 232 192 165 286 142 156 192 151 171 120 92 132 157 17 168 212 117 151 214 37 21 41 14 11 329 326 14 58 71 68 53 79 37 96 94
212 214 220 221 218 220 228 219 210 209 211 214 144 193 214 213 228 150 117 206 209 207 196 194 27 173 161 172 124 109 85 159 156 238 101 127 230 92 59 45 34 6 359 348 344 39 21 46 38 41 43 30 58 75
208 215 214 218 223 220 212 214 201 197 165 147 157 210 240 273 101 133 190 180 217 219 198 156 165 147 184 140 138 229 160 166 144 238 148 211 271 150 50 49 26 7 358 13 7 44 42 41 21 50 45 31 36 44
206 215 220 221 222 210 210 208 208 163 165 176 163 132 93 54 12 241 180 268 173 197 176 156 185 142 131 128 124 184 139 87 200 142 97 216 136 65 31 16 15 5 358 4 8 32 38 44 20 50 40 28 21 18
208 214 214 217 218 214 208 208 205 185 161 95 208 156 150 249 210 247 194 265 163 172 177 167 135 146 120 183 172 166 153 184 130 86 213 197 100 56 22 4 1 3 6 18 26 34 50 53 41 36 45 22 24 36
175 163 141 127 113 100 86 44 200 175 167 185 156 198 188 206 222 204 193 202 249 172 192 144 135 160 155 155 143 129 111 132 94 161 230 126 71 32 31 21 35 4 8 32 34 48 61 63 58 43 38 26 46 50
143 157 124 118 104 58 269 254 306 54 36 241 193 207 199 234 137 230 245 292 349 274 141 101 97 101 138 136 159 122 116 173 195 211 117 106 72 57 38 24 33 33 27 25 8 51 73 68 73 65 31 32 46 55
119 91 53 17 338 6 112 76 39 74 54 62 21 314 296 71 8 1 17 328 5 328 155 113 129 176 142 147 130 87 145 198 150 99 73 102 79 74 67 46 50 52 52 46 35 37 71 65 77 82 59 47 45 53
75 56 338 327 109 79 73 83 70 56 69 64 48 5 294 60 90 40 4 341 327 304 229 139 140 93 95 71 65 18 85 53 115 79 64 68 86 92 85 80 66 63 64 54 49 48 44 34 70 76 71 18 50 53
58 291 1 85 97 71 50 38 78 76 72 41 84 291 48 37 12 51 353 340 336 346 353 71 22 50 47 108 191 47 82 81 75 78 77 53 40 71 76 82 73 71 66 52 37 28 28 39 67 68 72 48 66 46
66 49 32 65 92 87 71 44 48 93 84 107 113 88 75 90 75 44 10 346 44 22 56 48 54 49 64 32 56 69 59 49 102 88 79 64 49 67 75 78 75 68 65 49 46 46 46 41 40 36 39 46 63 38
82 41 34 46 61 76 71 36 24 77 79 102 52 30 70 67 18 26 21 11 29 53 43 45 39 9 32 30 14 22 44 63 120 101 79 58 40 58 51 62 67 67 61 44 45 39 33 46 31 25 34 40 51 22
40 352 19 58 55 58 75 15 61 77 103 80 80 50 77 69 35 19 24 1 55 35 61 30 356 15 7 21 24 356 33 45 67 60 102 100 62 65 67 57 57 59 63 47 53 38 42 35 344 353 32 28 16 16
349 18 51 8 76 59 73 14 44 49 64 84 67 45 49 47 29 25 24 37 62 15 17 343 348 355 33 23 7 21 40 73 73 82 81 84 74 60 51 44 63 59 48 30 33 44 21 357 353 353 24 3 25 30
21 32 49 10 68 43 1 338 57 20 73 78 55 47 47 52 32 31 72 51 56 1 342 333 17 41 52 41 52 52 43 78 83 79 78 79 77 69 66 55 52 66 57 14 357 39 23 354 8 22 14 25 22 22
33 45 33 37 19 24 336 28 13 33 41 45 47 54 40 32 57 61 67 48 351 344 6 14 22 54 50 45 43 33 22 48 78 64 50 81 85 68 66 67 57 52 42 277 19 28 16 13 7 13 17 24 14 19
67 2 40 5 360 17 26 22 9 22 53 31 67 55 39 20 66 62 68 35 4 1 359 13 44 38 74 67 45 40 21 32 76 82 24 60 98 66 55 59 67 49 2 18 23 17 359 359 7 5 1 7 357 344
67 343 50 2 3 32 1 36 22 17 16 58 43 54 40 61 66 58 53 52 19 13 7 4 15 54 49 26 36 21 347 343 32 75 346 41 98 124 133 110 29 313 27 78 54 12 343 337 346 352 342 337 331 322
49 345 359 56 39 4 52 42 21 41 50 34 357 15 59 68 77 90 115 40 66 31 25 18 23 54 66 27 344 305 301 340 110 141 137 82 69 93 120 135 194 249 315 355 51 168 258 299 302 304 299 293 266 264
62 41 36 343 46 27 69 40 30 27 18 349 298 43 70 64 112 90 73 78 85 76 60 40 28 34 93 273 286 331 356 7 71 73 48 29 54 89 74 37 271 319 331 286 268 272 233 247 269 277 271 278 295 284
28 352 50 21 34 48 45 31 3 328 344 310 64 96 107 65 353 65 60 65 72 89 81 67 24 354 332 309 347 357 20 129 123 129 220 270 329 306 286 333 322 304 290 312 307 309 285 275 276 314 300 283 288 286
3 2 70 33 55 50 334 25 315 327 54 181 128 110 70 49 27 13 83 85 103 130 171 186 264 44 60 36 326 327 318 342 98 136 168 223 229 255 291 293 297 290 283 294 295 298 305 324 311 311 300 295 289 288
329 13 51 36 72 333 309 307 312 25 25 38 17 64 75 336 328 14 96 132 131 114 99 347 319 233 188 269 212 311 311 273 227 242 235 244 265 267 270 270 263 256 256 261 274 271 278 284 275 284 288 287 288 285
17 34 59 61 8 343 7 35 15 49 351 38 360 12 11 43 36 293 191 125 83 119 242 192 212 261 216 228 231 239 232 261 250 246 251 244 249 253 254 254 247 240 249 260 258 262 265 266 280 283 287 287 284 283
37 31 49 50 14 6 343 37 22 9 26 27 345 238 219 159 174 255 285 197 175 183 206 216 228 238 238 234 235 248 239 234 250 265 266 271 283 283 282 264 231 236 255 264 264 268 272 275 275 277 277 276 278 280